This demonstration page uses our WeatherBlox Daily Observations layout. Learn more.

Left ArrowRight Arrow

Hourly Observations for October 6, 2019

Temp ( °F °C ) Dew Point ( °F °C ) Humidity (%) Winds ( mph kmh ) Pressure ( in mb ) Visibility ( mi km ) Precip ( " mm )
12:53 am 00:53 Cloudy 66 18.9 59 15 78 78 E 14 22 30.16 1021 10 16 0.00 0.00
1:53 am 01:53 Cloudy 65 18.3 58 14.4 78 78 E 10 17 30.17 1022 10 16 0.00 0.00
2:53 am 02:53 Cloudy 65 18.3 58 14.4 78 78 E 8 13 30.17 1022 10 16 0.00 0.00
3:53 am 03:53 Cloudy 64 17.8 58 14.4 81 81 ENE 12 19 30.17 1022 10 16 0.00 0.00
4:53 am 04:53 Cloudy 63 17.2 58 14.4 84 84 ENE 9 15 30.17 1022 9 14 0.00 0.00
5:09 am 05:09 Cloudy 63 17.2 58 14.4 84 84 E 9 15 30.19 1022 10 16 0.00 0.00
5:25 am 05:25 Cloudy 63 17.2 58 14.4 84 84 ENE 9 15 30.19 1022 10 16 0.00 0.00
5:53 am 05:53 Cloudy 63 17.2 58 14.4 84 84 E 8 13 30.18 1022 10 16 0.00 0.00
6:53 am 06:53 Cloudy 63 17.2 58 14.4 84 84 ENE 7 11 30.18 1022 10 16 0.00 0.00
7:53 am 07:53 Cloudy 63 17.2 58 14.4 84 84 ENE 7 11 30.19 1022 10 16 0.00 0.00
8:53 am 08:53 Cloudy 64 17.8 59 15 84 84 ENE 9 15 30.20 1023 10 16 0.00 0.00
9:33 am 09:33 Cloudy 64 17.8 59 15 84 84 E 7 11 30.22 1023 10 16 0.00 0.00
9:53 am 09:53 Cloudy 65 18.3 59 15 81 81 E 8 13 30.22 1023 10 16 0.00 0.00
10:53 am 10:53 Cloudy 67 19.4 60 15.6 79 79 E 10 17 30.23 1024 10 16 0.00 0.00
11:53 am 11:53 Cloudy 70 21.1 61 16.1 73 73 ENE 10 17 30.22 1024 10 16 0.00 0.00
12:08 pm 12:08 Cloudy 70 21.1 61 16.1 73 73 VRB 7 11 30.21 1023 10 16 0.00 0.00
12:53 pm 12:53 Mostly Cloudy 71 21.7 61 16.1 71 71 VRB 7 11 30.21 1023 10 16 0.00 0.00
1:53 pm 13:53 Cloudy 76 24.4 63 17.2 64 64 NE 7 11 30.19 1022 10 16 0.00 0.00
2:53 pm 14:53 Mostly Cloudy 76 24.4 63 17.2 64 64 ENE 5 7 30.16 1021 10 16 0.00 0.00
3:53 pm 15:53 Cloudy 77 25 63 17.2 62 62 NE 10 17 30.14 1021 10 16 0.00 0.00
4:53 pm 16:53 Partly Cloudy 78 25.6 63 17.2 60 60 ENE 8 13 30.12 1020 10 16 0.00 0.00
5:53 pm 17:53 Mostly Sunny 78 25.6 64 17.8 62 62 NE 6 9 30.11 1020 10 16 0.00 0.00
6:53 pm 18:53 Sunny 77 25 64 17.8 64 64 ENE 7 11 30.11 1020 10 16 0.00 0.00
7:53 pm 19:53 Clear 73 22.8 63 17.2 71 71 NNE 6 9 30.12 1020 10 16 0.00 0.00
8:53 pm 20:53 Cloudy 72 22.2 63 17.2 73 73 NE 7 11 30.14 1021 10 16 0.00 0.00
9:53 pm 21:53 Mostly Cloudy 72 22.2 63 17.2 73 73 ENE 8 13 30.14 1021 10 16 0.00 0.00
10:53 pm 22:53 Clear 72 22.2 63 17.2 73 73 ENE 7 11 30.13 1020 10 16 0.00 0.00
11:53 pm 23:53 Partly Cloudy 71 21.7 63 17.2 76 76 ENE 3 6 30.12 1020 10 16 0.00 0.00

Powered by AerisWeather